Location: Unspecified
(0.0000°N, 0.0000°E)
Time: 00:18:43
(UTC+00:00)

SEEDS - Pass Details

Date: 31 March 2019
Orbit: 585 x 606 km, 97.5° (Epoch: 18 April)

Event Time Altitude Azimuth Distance (km) Brightness Sun altitude
Rises 18:23:29 0° 183° (S) 2,859 ? -4.8°
Reaches altitude 10° 18:25:46 10° 191° (S) 1,952 ? -5.4°
Maximum altitude 18:29:42 37° 258° (WSW) 937 ? -6.4°
Drops below altitude 10° 18:33:36 10° 326° (NNW) 1,936 ? -7.3°
Sets 18:35:53 0° 335° (NNW) 2,833 ? -7.9°
